Location: Br�ttisellen
(47.4227°N, 8.6287°E)
Time: 12:14:52
(UTC+00:00)

Cosmos 1954 Rocket - Pass Details

Date: 09 April 2020
Orbit: 752 x 781 km, 74.1° (Epoch: 25 May)

Event Time Altitude Azimuth Distance (km) Brightness Sun altitude
Rises 19:27:51 0° 192° (SSW) 3,226 7.1 -13.6°
Reaches altitude 10° 19:30:14 10° 190° (S) 2,300 6.3 -14.0°
Maximum altitude 19:35:23 67° 109° (ESE) 829 3.9 -14.7°
Drops below altitude 10° 19:40:34 10° 27° (NNE) 2,298 6.5 -15.5°
Sets 19:42:56 0° 25° (NNE) 3,225 7.3 -15.8°
